Terminal Aerodrome Forecast
Issued by NWS

Home | Current Version | Previous Version | Text Only | Print | Product List | Glossary On
Versions: 1 2 3 4 5 6 7 8 9 10 11 12 13 14 15 16 17
000
FTUS43 KMPX 201100
TAFRNH
TAF
KRNH 201135Z 2012/2112 17007KT P6SM BKN050
     FM201500 19014G21KT P6SM SCT050 BKN200
     FM210200 18006KT P6SM BKN200=

USA.gov is the U.S. government's official web portal to all federal, state and local government web resources and services.